EZY39UL EHAM-EGGD

Flight info

Callsign EZY39UL
Flight time 0h 59m
Altitude 36000
Route IDRID L980 LAM L179 ICTAM
Aircraft A320/M-SDE3FGHIRWY/LB1

Departure

Time 2026-05-04 20:19
Airport Amsterdam Airport Schiphol (EHAM)

Arrival

Time 2026-05-04 21:19
Airport Bristol Airport (EGGD)
Time Latitude Longitude Altitude Speed Heading
2026-05-04 19:38 52.30985 4.75354 -2 ft 0 kts 149°
2026-05-04 19:39 52.30985 4.75353 -2 ft 0 kts 147°
2026-05-04 20:05 52.30991 4.75348 -2 ft 3 kts 147°
2026-05-04 20:05 52.31011 4.75320 -2 ft 4 kts 123°
2026-05-04 20:05 52.31019 4.75283 -2 ft 4 kts 75°
2026-05-04 20:05 52.31014 4.75264 -2 ft 1 kts 58°
2026-05-04 20:06 52.31014 4.75263 -2 ft 0 kts 58°
2026-05-04 20:08 52.31019 4.75276 -2 ft 4 kts 58°
2026-05-04 20:08 52.31039 4.75329 -2 ft 6 kts 57°
2026-05-04 20:09 52.31043 4.75339 -2 ft 7 kts 57°
2026-05-04 20:09 52.31077 4.75426 -2 ft 9 kts 57°
2026-05-04 20:10 52.31125 4.75496 -2 ft 6 kts
2026-05-04 20:10 52.31185 4.75446 -2 ft 13 kts 330°
2026-05-04 20:10 52.31290 4.75422 -2 ft 17 kts 357°
2026-05-04 20:10 52.31400 4.75412 -2 ft 14 kts 358°
2026-05-04 20:11 52.31494 4.75398 -3 ft 13 kts 331°
2026-05-04 20:11 52.31505 4.75225 -3 ft 19 kts 266°
2026-05-04 20:11 52.31496 4.74975 -2 ft 23 kts 268°
2026-05-04 20:11 52.31487 4.74685 -2 ft 27 kts 266°
2026-05-04 20:12 52.31476 4.74412 -2 ft 19 kts 268°
2026-05-04 20:12 52.31540 4.74292 -2 ft 18 kts
2026-05-04 20:12 52.31665 4.74306 1 ft 20 kts
2026-05-04 20:12 52.31824 4.74319 -5 ft 25 kts
2026-05-04 20:13 52.31947 4.74332 -6 ft 16 kts
2026-05-04 20:13 52.32030 4.74243 -6 ft 19 kts 279°
2026-05-04 20:13 52.32036 4.73996 -5 ft 25 kts 271°
2026-05-04 20:13 52.32050 4.73701 1 ft 26 kts 274°
2026-05-04 20:14 52.32059 4.73484 2 ft 19 kts 275°
2026-05-04 20:14 52.32131 4.73295 0 ft 22 kts 319°
2026-05-04 20:14 52.32265 4.73106 -3 ft 29 kts 319°
2026-05-04 20:14 52.32428 4.72879 -3 ft 31 kts 320°
2026-05-04 20:15 52.32588 4.72651 -3 ft 30 kts 319°
2026-05-04 20:15 52.32718 4.72447 0 ft 25 kts 311°
2026-05-04 20:15 52.32833 4.72234 -1 ft 25 kts 310°
2026-05-04 20:15 52.32955 4.72008 -3 ft 27 kts 311°
2026-05-04 20:16 52.33077 4.71783 -2 ft 22 kts 310°
2026-05-04 20:16 52.33147 4.71628 -1 ft 17 kts 288°
2026-05-04 20:16 52.33110 4.71459 0 ft 16 kts 223°
2026-05-04 20:16 52.33026 4.71338 -2 ft 16 kts 221°
2026-05-04 20:17 52.32943 4.71218 -2 ft 15 kts 221°
2026-05-04 20:17 52.32873 4.71099 -4 ft 15 kts 241°
2026-05-04 20:17 52.32869 4.70942 -3 ft 13 kts 282°
2026-05-04 20:17 52.32932 4.70891 -4 ft 2 kts
2026-05-04 20:18 52.32955 4.70893 -5 ft 14 kts
2026-05-04 20:19 52.33319 4.70926 -5 ft 88 kts
2026-05-04 20:19 52.34132 4.71000 -7 ft 145 kts
2026-05-04 20:19 52.35231 4.71083 405 ft 158 kts
2026-05-04 20:19 52.36329 4.71190 1162 ft 159 kts
2026-05-04 20:20 52.37471 4.71364 1739 ft 173 kts
2026-05-04 20:20 52.38721 4.71525 2254 ft 187 kts
2026-05-04 20:20 52.40105 4.71660 2714 ft 211 kts
2026-05-04 20:20 52.41653 4.71766 3245 ft 233 kts
2026-05-04 20:21 52.43342 4.71844 3820 ft 253 kts
2026-05-04 20:21 52.45168 4.71866 4496 ft 268 kts 357°
2026-05-04 20:21 52.48904 4.71770 6460 ft 272 kts 343°
2026-05-04 20:22 52.50588 4.70375 7303 ft 274 kts 318°
2026-05-04 20:22 52.51750 4.67913 8193 ft 276 kts 293°
2026-05-04 20:22 52.52168 4.64863 9078 ft 277 kts 268°
2026-05-04 20:22 52.51750 4.61774 9944 ft 281 kts 243°
2026-05-04 20:23 52.50667 4.59023 10450 ft 298 kts 235°
2026-05-04 20:23 52.49850 4.57142 10666 ft 313 kts 235°
2026-05-04 20:23 52.48546 4.54196 11236 ft 324 kts 234°
2026-05-04 20:23 52.47201 4.51175 11939 ft 331 kts 234°
2026-05-04 20:24 52.45832 4.48093 12662 ft 337 kts 235°
2026-05-04 20:24 52.44445 4.44972 13431 ft 341 kts 235°
2026-05-04 20:24 52.43039 4.41800 14116 ft 346 kts 235°
2026-05-04 20:24 52.41617 4.38580 14770 ft 351 kts 235°
2026-05-04 20:25 52.40177 4.35326 15452 ft 354 kts 235°
2026-05-04 20:25 52.38726 4.32051 16167 ft 357 kts 235°
2026-05-04 20:25 52.37266 4.28762 16908 ft 358 kts 234°
2026-05-04 20:25 52.35796 4.25458 17587 ft 361 kts 235°
2026-05-04 20:26 52.34307 4.22116 18226 ft 365 kts 234°
2026-05-04 20:26 52.32806 4.18752 18848 ft 367 kts 235°
2026-05-04 20:26 52.31300 4.15379 19480 ft 369 kts 234°
2026-05-04 20:26 52.29751 4.12008 20052 ft 373 kts 234°
2026-05-04 20:27 52.28156 4.08645 20647 ft 375 kts 233°
2026-05-04 20:27 52.26537 4.05284 21250 ft 378 kts 233°
2026-05-04 20:27 52.24903 4.01899 21842 ft 381 kts 233°
2026-05-04 20:27 52.23258 3.98490 22427 ft 384 kts 233°
2026-05-04 20:28 52.21602 3.95057 22998 ft 387 kts 233°
2026-05-04 20:28 52.19933 3.91592 23564 ft 389 kts 233°
2026-05-04 20:28 52.18255 3.88106 24034 ft 392 kts 233°
2026-05-04 20:28 52.16569 3.84604 24489 ft 394 kts 232°
2026-05-04 20:29 52.14874 3.81087 24974 ft 395 kts 232°
2026-05-04 20:29 52.13175 3.77564 25406 ft 397 kts 232°
2026-05-04 20:29 52.11464 3.74020 25796 ft 400 kts 232°
2026-05-04 20:29 52.09744 3.70455 26220 ft 401 kts 231°
2026-05-04 20:30 52.08015 3.66886 26644 ft 403 kts 231°
2026-05-04 20:30 52.06273 3.63295 27019 ft 406 kts 231°
2026-05-04 20:30 52.04517 3.59682 27415 ft 408 kts 231°
2026-05-04 20:30 52.02774 3.56102 27789 ft 410 kts 231°
2026-05-04 20:31 52.01000 3.52458 28161 ft 413 kts 230°
2026-05-04 20:31 51.99216 3.48792 28532 ft 415 kts 231°
2026-05-04 20:31 51.97455 3.45046 28839 ft 419 kts 232°
2026-05-04 20:31 51.95724 3.41227 29162 ft 422 kts 232°
2026-05-04 20:32 51.94007 3.37364 29542 ft 423 kts 232°
2026-05-04 20:32 51.92290 3.33487 29904 ft 425 kts 232°
2026-05-04 20:32 51.90557 3.29605 30211 ft 426 kts 232°
2026-05-04 20:32 51.88808 3.25721 30479 ft 428 kts 232°
2026-05-04 20:33 51.87083 3.21789 30746 ft 430 kts 236°
2026-05-04 20:33 51.85696 3.17478 31004 ft 434 kts 245°
2026-05-04 20:33 51.84770 3.12822 31258 ft 438 kts 255°
2026-05-04 20:33 51.84320 3.07936 31543 ft 440 kts 262°
2026-05-04 20:34 51.84018 3.03026 31900 ft 438 kts 262°
2026-05-04 20:34 51.83707 2.98137 32270 ft 436 kts 262°
2026-05-04 20:34 51.83386 2.93269 32637 ft 434 kts 262°
2026-05-04 20:34 51.83059 2.88421 33019 ft 433 kts 262°
2026-05-04 20:35 51.82732 2.83599 33381 ft 431 kts 262°
2026-05-04 20:35 51.82406 2.78789 33729 ft 430 kts 262°
2026-05-04 20:35 51.82079 2.73992 34076 ft 429 kts 262°
2026-05-04 20:35 51.81750 2.69210 34361 ft 428 kts 262°
2026-05-04 20:36 51.81423 2.64427 34626 ft 428 kts 262°
2026-05-04 20:36 51.81096 2.59640 34875 ft 428 kts 262°
2026-05-04 20:36 51.80768 2.54857 35115 ft 429 kts 262°
2026-05-04 20:36 51.80436 2.50061 35354 ft 429 kts 262°
2026-05-04 20:37 51.80101 2.45271 35577 ft 429 kts 262°
2026-05-04 20:37 51.79763 2.40482 35800 ft 430 kts 262°
2026-05-04 20:37 51.79425 2.35735 35974 ft 431 kts 262°
2026-05-04 20:37 51.79079 2.30927 36031 ft 430 kts 262°
2026-05-04 20:38 51.78388 2.21361 36032 ft 429 kts 262°
2026-05-04 20:38 51.77785 2.11784 36042 ft 429 kts 263°
2026-05-04 20:39 51.77261 2.02189 36033 ft 429 kts 263°
2026-05-04 20:39 51.76713 1.92592 36051 ft 429 kts 263°
2026-05-04 20:40 51.76129 1.83006 36051 ft 429 kts 263°
2026-05-04 20:40 51.75533 1.73417 36051 ft 429 kts 262°
2026-05-04 20:41 51.74928 1.63838 36054 ft 429 kts 262°
2026-05-04 20:41 51.74317 1.54256 36063 ft 429 kts 262°
2026-05-04 20:42 51.73704 1.44675 36064 ft 429 kts 263°
2026-05-04 20:42 51.73085 1.35095 36064 ft 429 kts 262°
2026-05-04 20:43 51.72458 1.25521 36066 ft 429 kts 262°
2026-05-04 20:43 51.71818 1.15935 36064 ft 429 kts 262°
2026-05-04 20:44 51.71172 1.06420 36060 ft 429 kts 262°
2026-05-04 20:44 51.70516 0.96854 36069 ft 429 kts 262°
2026-05-04 20:45 51.69850 0.87264 36058 ft 430 kts 262°
2026-05-04 20:45 51.69180 0.77684 36054 ft 430 kts 262°
2026-05-04 20:46 51.68497 0.68097 36063 ft 431 kts 262°
2026-05-04 20:46 51.67810 0.58502 36060 ft 431 kts 262°
2026-05-04 20:47 51.67114 0.48904 36052 ft 431 kts 262°
2026-05-04 20:47 51.66412 0.39308 36051 ft 432 kts 262°
2026-05-04 20:48 51.65706 0.29766 36048 ft 432 kts 262°
2026-05-04 20:48 51.64978 0.20156 36050 ft 432 kts 262°
2026-05-04 20:49 51.64192 0.10563 36052 ft 432 kts 260°
2026-05-04 20:49 51.63173 0.01033 36056 ft 432 kts 258°
2026-05-04 20:50 51.62155 -0.07735 36038 ft 433 kts 258°
2026-05-04 20:50 51.61140 -0.17321 36033 ft 436 kts 260°
2026-05-04 20:51 51.60370 -0.27013 35854 ft 438 kts 262°
2026-05-04 20:51 51.60009 -0.31917 34999 ft 442 kts 262°
2026-05-04 20:51 51.59641 -0.36819 34368 ft 439 kts 261°
2026-05-04 20:52 51.59258 -0.41657 33800 ft 434 kts 261°
2026-05-04 20:52 51.58861 -0.46438 33206 ft 429 kts 260°
2026-05-04 20:52 51.58455 -0.51164 32631 ft 424 kts 259°
2026-05-04 20:52 51.58047 -0.55834 32073 ft 419 kts 259°
2026-05-04 20:53 51.57644 -0.60452 31527 ft 415 kts 259°
2026-05-04 20:53 51.57248 -0.65014 31011 ft 410 kts 259°
2026-05-04 20:53 51.56856 -0.69531 30510 ft 406 kts 258°
2026-05-04 20:53 51.56468 -0.74001 29980 ft 402 kts 258°
2026-05-04 20:54 51.56082 -0.78435 29381 ft 399 kts 258°
2026-05-04 20:54 51.55698 -0.82829 28780 ft 395 kts 258°
2026-05-04 20:54 51.55315 -0.87190 28192 ft 393 kts 258°
2026-05-04 20:54 51.54932 -0.91527 27605 ft 390 kts 258°
2026-05-04 20:55 51.54598 -0.95265 27130 ft 388 kts 258°
2026-05-04 20:55 51.54215 -0.99551 26543 ft 388 kts 258°
2026-05-04 20:55 51.53832 -1.03832 25969 ft 387 kts 259°
2026-05-04 20:55 51.53446 -1.08104 25439 ft 385 kts 259°
2026-05-04 20:56 51.53069 -1.12298 24937 ft 384 kts 259°
2026-05-04 20:56 51.52910 -1.16579 24437 ft 385 kts 270°
2026-05-04 20:56 51.53243 -1.20847 23947 ft 385 kts 279°
2026-05-04 20:56 51.53753 -1.25051 23426 ft 383 kts 279°
2026-05-04 20:57 51.54253 -1.29248 22890 ft 381 kts 279°
2026-05-04 20:57 51.54743 -1.33410 22391 ft 378 kts 279°
2026-05-04 20:57 51.55224 -1.37544 21907 ft 375 kts 279°
2026-05-04 20:57 51.55700 -1.41646 21427 ft 372 kts 279°
2026-05-04 20:58 51.56172 -1.45703 20964 ft 369 kts 279°
2026-05-04 20:58 51.56646 -1.49749 20531 ft 366 kts 279°
2026-05-04 20:58 51.57112 -1.53737 20124 ft 361 kts 279°
2026-05-04 20:58 51.57570 -1.57688 19691 ft 358 kts 279°
2026-05-04 20:59 51.58022 -1.61617 19249 ft 356 kts 279°
2026-05-04 20:59 51.58468 -1.65518 18818 ft 354 kts 278°
2026-05-04 20:59 51.58841 -1.69416 18394 ft 351 kts 276°
2026-05-04 20:59 51.59136 -1.73305 17922 ft 349 kts 275°
2026-05-04 21:00 51.59394 -1.77173 17459 ft 347 kts 275°
2026-05-04 21:00 51.59643 -1.81015 17018 ft 344 kts 274°
2026-05-04 21:00 51.59857 -1.84840 16581 ft 342 kts 270°
2026-05-04 21:00 51.59653 -1.88569 16179 ft 338 kts 257°
2026-05-04 21:01 51.58952 -1.92149 15755 ft 335 kts 247°
2026-05-04 21:01 51.58208 -1.95686 15361 ft 333 kts 256°
2026-05-04 21:01 51.57987 -1.99383 14961 ft 332 kts 269°
2026-05-04 21:01 51.58030 -2.03093 14538 ft 331 kts 270°
2026-05-04 21:02 51.58090 -2.06785 14131 ft 330 kts 271°
2026-05-04 21:02 51.58149 -2.10457 13717 ft 328 kts 271°
2026-05-04 21:02 51.58207 -2.14114 13273 ft 326 kts 271°
2026-05-04 21:02 51.58269 -2.17742 12874 ft 323 kts 270°
2026-05-04 21:03 51.58335 -2.21334 12465 ft 320 kts 270°
2026-05-04 21:03 51.58391 -2.24899 12046 ft 318 kts 270°
2026-05-04 21:03 51.58447 -2.28428 11638 ft 315 kts 270°
2026-05-04 21:03 51.58494 -2.31942 11215 ft 313 kts 270°
2026-05-04 21:04 51.58541 -2.35432 10822 ft 310 kts 270°
2026-05-04 21:04 51.58589 -2.38882 10443 ft 307 kts 270°
2026-05-04 21:04 51.58636 -2.42250 10315 ft 295 kts 270°
2026-05-04 21:04 51.58690 -2.45456 10130 ft 287 kts 270°
2026-05-04 21:05 51.58747 -2.48636 9800 ft 283 kts 270°
2026-05-04 21:05 51.58799 -2.51795 9412 ft 281 kts 271°
2026-05-04 21:05 51.58849 -2.54928 9026 ft 279 kts 270°
2026-05-04 21:05 51.58892 -2.58043 8616 ft 278 kts 270°
2026-05-04 21:06 51.58924 -2.61148 8202 ft 277 kts 270°
2026-05-04 21:06 51.58951 -2.64229 7814 ft 275 kts 270°
2026-05-04 21:06 51.58970 -2.67290 7419 ft 273 kts 270°
2026-05-04 21:06 51.58945 -2.70336 7019 ft 272 kts 264°
2026-05-04 21:07 51.58493 -2.73269 6604 ft 271 kts 252°
2026-05-04 21:07 51.57859 -2.76126 6180 ft 270 kts 250°
2026-05-04 21:07 51.57206 -2.78918 5965 ft 261 kts 250°
2026-05-04 21:07 51.56580 -2.81578 5834 ft 248 kts 250°
2026-05-04 21:08 51.55979 -2.84110 5700 ft 236 kts 250°
2026-05-04 21:08 51.55361 -2.86482 5568 ft 225 kts 230°
2026-05-04 21:08 51.54614 -2.87564 5582 ft 208 kts 221°
2026-05-04 21:08 51.53871 -2.89246 5729 ft 176 kts 260°
2026-05-04 21:09 51.53716 -2.91043 5742 ft 149 kts 268°
2026-05-04 21:09 51.53686 -2.92728 5303 ft 159 kts 274°
2026-05-04 21:09 51.53786 -2.94606 5324 ft 166 kts 281°
2026-05-04 21:09 51.54052 -2.96709 6400 ft 137 kts 288°
2026-05-04 21:10 51.54270 -2.97813 6507 ft 159 kts 292°
2026-05-04 21:10 51.54673 -2.99382 6905 ft 139 kts 297°
2026-05-04 21:10 51.55062 -3.00861 6346 ft 158 kts 292°
2026-05-04 21:10 51.55455 -3.02747 5469 ft 196 kts 287°
2026-05-04 21:11 51.55736 -3.04993 4895 ft 213 kts 272°
2026-05-04 21:11 51.55415 -3.07285 4919 ft 215 kts 245°
2026-05-04 21:11 51.54442 -3.09018 4967 ft 210 kts 209°
2026-05-04 21:11 51.53064 -3.09600 5000 ft 201 kts 183°
2026-05-04 21:12 51.51686 -3.09680 5007 ft 200 kts 180°
2026-05-04 21:12 51.50299 -3.09691 4881 ft 199 kts 179°
2026-05-04 21:12 51.48914 -3.09679 4615 ft 199 kts 175°
2026-05-04 21:12 51.47603 -3.09099 4357 ft 195 kts 153°
2026-05-04 21:13 51.46395 -3.08110 4135 ft 194 kts 149°
2026-05-04 21:13 51.45211 -3.07079 3909 ft 193 kts 149°
2026-05-04 21:13 51.44030 -3.06049 3651 ft 192 kts 149°
2026-05-04 21:13 51.42858 -3.05033 3438 ft 191 kts 149°
2026-05-04 21:14 51.41683 -3.04046 3195 ft 190 kts 150°
2026-05-04 21:14 51.40511 -3.03081 3041 ft 189 kts 150°
2026-05-04 21:14 51.39340 -3.02122 3003 ft 189 kts 150°
2026-05-04 21:14 51.38270 -3.00938 3010 ft 186 kts 131°
2026-05-04 21:15 51.37548 -2.99253 3007 ft 183 kts 110°
2026-05-04 21:15 51.37264 -2.97343 3039 ft 170 kts 90°
2026-05-04 21:15 51.37318 -2.95503 3007 ft 163 kts 84°
2026-05-04 21:15 51.37392 -2.93712 3001 ft 161 kts 84°
2026-05-04 21:16 51.37466 -2.91927 2896 ft 160 kts 84°
2026-05-04 21:16 51.37538 -2.90158 2721 ft 159 kts 84°
2026-05-04 21:16 51.37610 -2.88400 2526 ft 158 kts 84°
2026-05-04 21:16 51.37678 -2.86706 2320 ft 150 kts 84°
2026-05-04 21:17 51.37741 -2.85126 2143 ft 137 kts 84°
2026-05-04 21:17 51.37801 -2.83642 1954 ft 131 kts 84°
2026-05-04 21:17 51.37859 -2.82206 1786 ft 128 kts 84°
2026-05-04 21:17 51.37916 -2.80784 1605 ft 128 kts 84°
2026-05-04 21:18 51.37973 -2.79350 1420 ft 129 kts 84°
2026-05-04 21:18 51.38031 -2.77923 1236 ft 128 kts 84°
2026-05-04 21:18 51.38089 -2.76493 1088 ft 129 kts 86°
2026-05-04 21:18 51.38141 -2.75065 879 ft 129 kts 83°
2026-05-04 21:19 51.38195 -2.73627 685 ft 129 kts 84°
2026-05-04 21:19 51.38255 -2.72272 629 ft 109 kts 86°
2026-05-04 21:19 51.38282 -2.71541 613 ft 32 kts 86°
2026-05-04 21:19 51.38296 -2.71148 619 ft 35 kts 86°
2026-05-04 21:20 51.38308 -2.70855 612 ft 13 kts 87°
2026-05-04 21:20 51.38360 -2.70752 615 ft 13 kts 21°
2026-05-04 21:20 51.38405 -2.70725 615 ft 4 kts 20°
2026-05-04 21:20 51.38425 -2.70713 611 ft 2 kts 20°
2026-05-04 21:21 51.38446 -2.70707 619 ft 5 kts
2026-05-04 21:21 51.38471 -2.70763 618 ft 6 kts 268°
2026-05-04 21:21 51.38477 -2.70813 612 ft 4 kts 307°
2026-05-04 21:21 51.38504 -2.70829 617 ft 6 kts 353°
2026-05-04 21:22 51.38512 -2.70830 620 ft 0 kts 355°
2026-05-04 21:22 51.38521 -2.70838 615 ft 3 kts 331°
2026-05-04 21:22 51.38528 -2.70873 615 ft 3 kts 269°
2026-05-04 21:22 51.38527 -2.70894 618 ft 1 kts 268°
2026-05-04 21:23 51.38527 -2.70903 615 ft 0 kts 268°